period_start,C,m1,H,J0,J1,J2,J3,J4,J5,JA,JB,JC,JD,JJ,JK,JN,#
2016-01-27 00:00:49,0.08,3.86,0.00,14.88,18.78,22.79,15.23,50.01,1030.78,2066.00,2287.08,2285.23,2555.74,600.04,621.42,17.99,0000 0000 0000 0000 000000
2016-01-27 00:05:51,0.08,3.86,0.00,14.88,18.79,22.79,15.16,49.97,1030.78,2065.98,2286.17,2284.51,2554.86,599.56,620.91,18.04,0000 0000 0000 0000 000000
2016-01-27 00:10:52,0.06,3.87,0.00,14.90,18.81,22.80,15.20,50.13,1030.78,2065.99,2285.29,2283.88,2553.98,599.98,621.18,18.09,0000 0000 0000 0000 000000
2016-01-27 00:15:53,0.08,3.87,0.00,14.91,18.82,22.85,15.27,50.02,1030.78,2065.98,2284.47,2283.05,2553.10,600.18,621.48,18.14,0000 0000 0000 0000 000000
2016-01-27 00:20:54,0.08,3.87,0.00,14.93,18.83,22.87,15.21,50.00,1030.78,2065.96,2283.74,2282.27,2552.29,599.92,621.24,18.19,0000 0000 0000 0000 000000
2016-01-27 00:25:56,0.07,3.88,0.00,14.95,18.84,22.86,15.17,49.98,1030.78,2065.96,2282.84,2281.64,2551.52,599.75,621.03,18.24,0000 0000 0000 0000 000000
2016-01-27 00:30:57,0.06,3.88,0.00,14.97,18.87,22.85,15.22,49.92,1030.78,2065.93,2281.91,2280.92,2550.63,599.95,621.21,18.29,0000 0000 0000 0000 000000
2016-01-27 00:35:58,0.04,3.88,0.00,14.95,18.87,22.91,15.23,49.95,1030.79,2065.60,2280.95,2280.08,2549.70,599.90,621.12,18.34,0000 0000 0000 0000 000000
2016-01-27 00:41:00,0.05,3.89,0.00,14.96,18.89,22.93,15.18,49.84,1030.78,2065.22,2280.00,2279.26,2548.81,600.13,621.34,18.39,0000 0000 0000 0000 000000
2016-01-27 00:46:01,0.07,3.89,0.00,14.98,18.90,22.89,15.14,49.89,1030.78,2065.07,2279.08,2278.56,2547.99,599.85,621.17,18.44,0000 0000 0000 0000 000000
2016-01-27 00:51:02,0.07,3.89,0.00,15.02,18.92,22.84,15.21,49.94,1030.78,2065.05,2278.15,2277.87,2547.13,600.02,621.11,18.49,0000 0000 0000 0000 000000
2016-01-27 00:56:04,0.08,3.90,0.00,15.02,18.94,22.97,15.15,49.77,1030.78,2065.04,2277.26,2277.06,2546.22,599.97,621.05,18.54,0000 0000 0000 0000 000000
2016-01-27 01:01:05,0.08,3.90,0.00,15.01,18.94,22.93,15.23,49.88,1030.78,2065.04,2276.52,2276.36,2545.52,600.04,621.14,18.59,0000 0000 0000 0000 000000
2016-01-27 01:06:06,0.06,3.90,0.00,15.02,18.96,22.94,15.20,50.00,1030.78,2065.00,2275.50,2275.72,2544.69,600.08,621.19,18.64,0000 0000 0000 0000 000000
2016-01-27 01:11:07,0.06,3.91,0.00,15.06,18.97,22.96,15.15,49.91,1030.78,2065.01,2274.49,2274.91,2543.88,599.59,620.65,18.69,0000 0000 0000 0000 000000
2016-01-27 01:16:09,0.08,3.91,0.00,15.08,18.99,22.98,15.18,49.89,1030.78,2065.00,2273.67,2274.06,2542.98,599.79,620.74,18.74,0000 0000 0000 0000 000000
2016-01-27 01:21:10,0.08,3.92,0.00,15.07,18.99,23.01,15.19,49.92,1030.78,2065.00,2272.84,2273.33,2542.08,599.93,620.95,18.79,0000 0000 0000 0000 000000
2016-01-27 01:26:11,0.07,3.92,0.00,15.09,19.02,23.02,15.25,49.90,1030.78,2065.00,2271.89,2272.76,2541.25,599.94,620.98,18.84,0000 0000 0000 0000 000000
2016-01-27 01:31:13,0.14,3.92,0.00,15.11,19.03,22.98,15.17,49.86,1030.78,2064.99,2270.40,2271.47,2540.07,599.93,620.74,18.89,0000 0000 0000 0000 000000
2016-01-27 01:36:14,0.09,3.93,0.00,15.12,19.04,23.10,15.27,49.80,1030.78,2064.98,2269.31,2270.51,2538.89,599.79,620.66,18.94,0000 0000 0000 0000 000000
2016-01-27 01:41:16,0.08,3.93,0.00,15.11,19.07,23.07,15.16,49.88,1030.78,2064.98,2268.21,2269.67,2537.97,599.81,620.68,18.99,0000 0000 0000 0000 000000
2016-01-27 01:46:17,0.06,3.94,0.00,15.12,19.08,23.08,15.19,49.89,1030.78,2064.96,2267.27,2268.99,2537.08,599.86,620.79,19.04,0000 0000 0000 0000 000000
2016-01-27 01:51:18,0.09,3.94,0.00,15.17,19.10,23.10,15.27,49.88,1030.78,2064.98,2266.38,2268.21,2536.25,600.12,620.89,19.09,0000 0000 0000 0000 000000
2016-01-27 01:56:20,0.07,3.95,0.00,15.21,19.12,23.11,15.25,50.02,1030.78,2064.94,2265.57,2267.57,2535.43,600.18,620.90,19.14,0000 0000 0000 0000 000000
2016-01-27 02:01:21,0.02,3.95,0.00,15.21,19.14,23.11,15.23,50.03,1030.78,2064.59,2264.57,2266.75,2534.50,600.06,620.77,19.19,0000 0000 0000 0000 000000
2016-01-27 02:06:22,0.09,3.95,0.00,15.22,19.15,23.12,15.10,49.92,1030.78,2064.47,2263.57,2265.94,2533.58,599.86,620.59,19.24,0000 0000 0000 0000 000000
2016-01-27 02:11:23,0.05,3.96,0.00,15.26,19.17,23.17,15.26,50.00,1030.78,2064.15,2262.50,2265.07,2532.63,600.13,620.80,19.29,0000 0000 0000 0000 000000
2016-01-27 02:16:24,0.09,3.96,0.00,15.27,19.19,23.17,15.22,49.93,1030.77,2064.06,2261.30,2264.17,2531.64,599.94,620.47,19.34,0000 0000 0000 0000 000000
2016-01-27 02:21:25,0.12,3.96,0.00,15.28,19.20,23.21,15.30,49.89,1030.77,2064.02,2259.78,2263.26,2530.47,600.33,620.87,19.39,0000 0000 0000 0000 000000
2016-01-27 02:26:27,0.10,3.97,0.00,15.27,19.22,23.23,15.20,49.92,1030.77,2064.00,2258.49,2262.21,2529.35,600.01,620.65,19.44,0000 0000 0000 0000 000000
2016-01-27 02:31:28,0.10,3.98,0.00,15.26,19.23,23.20,15.24,49.92,1030.77,2064.00,2257.03,2261.14,2528.14,600.11,620.50,19.49,0000 0000 0000 0000 000000
2016-01-27 02:36:29,0.11,3.98,0.00,15.28,19.24,23.23,15.18,50.01,1030.78,2064.00,2255.62,2260.11,2526.97,599.88,620.40,19.54,0000 0000 0000 0000 000000
2016-01-27 02:41:31,0.09,3.99,0.00,15.32,19.27,23.29,15.21,49.92,1030.78,2063.99,2254.60,2259.26,2526.02,599.91,620.23,19.59,0000 0000 0000 0000 000000
2016-01-27 02:46:32,0.07,3.99,0.00,15.33,19.27,23.26,15.17,49.88,1030.78,2063.99,2253.76,2258.63,2525.13,600.08,620.58,19.64,0000 0000 0000 0000 000000
2016-01-27 02:51:33,0.09,4.00,0.00,15.33,19.29,23.21,15.23,49.88,1030.78,2063.97,2252.62,2257.76,2524.15,600.09,620.51,19.69,0000 0000 0000 0000 000000
2016-01-27 02:56:34,0.09,4.00,0.00,15.36,19.31,23.34,15.27,49.94,1030.78,2063.92,2251.34,2256.77,2523.05,600.31,620.67,19.74,0000 0000 0000 0000 000000
2016-01-27 03:01:36,0.14,4.01,0.00,15.41,19.32,23.30,15.16,50.07,1030.78,2063.77,2249.52,2255.53,2521.65,600.00,620.16,19.79,0000 0000 0000 0000 000000
2016-01-27 03:06:37,0.10,4.01,0.00,15.40,19.34,23.31,15.14,49.98,1030.78,2063.59,2247.85,2254.26,2520.25,600.00,620.25,19.84,0000 0000 0000 0000 000000
2016-01-27 03:11:39,0.06,4.02,0.00,15.41,19.34,23.34,15.17,49.89,1030.78,2063.13,2246.59,2253.26,2519.15,599.88,620.11,19.89,0000 0000 0000 0000 000000
2016-01-27 03:16:40,0.08,4.02,0.00,15.41,19.37,23.34,15.20,49.89,1030.78,2063.03,2245.57,2252.50,2518.13,600.12,620.36,19.94,0000 0000 0000 0000 000000
2016-01-27 03:21:42,0.08,4.03,0.00,15.40,19.37,23.30,15.23,49.98,1030.78,2063.01,2244.43,2251.73,2517.23,600.30,620.51,19.99,0000 0000 0000 0000 000000
2016-01-27 03:26:43,0.07,4.03,0.00,15.40,19.39,23.34,15.24,49.92,1030.78,2063.01,2243.45,2250.95,2516.25,600.14,620.32,20.04,0000 0000 0000 0000 000000
2016-01-27 03:31:44,0.09,4.03,0.00,15.42,19.39,23.39,15.20,49.88,1030.78,2063.00,2242.34,2250.08,2515.36,600.03,620.38,20.09,0000 0000 0000 0000 000000
2016-01-27 03:36:45,0.09,4.04,0.00,15.41,19.41,23.38,15.20,49.94,1030.78,2063.00,2241.30,2249.26,2514.51,600.14,620.36,20.14,0000 0000 0000 0000 000000
2016-01-27 03:41:46,0.09,4.04,0.00,15.46,19.42,23.35,15.15,49.87,1030.77,2063.00,2240.35,2248.50,2513.57,599.87,620.08,20.19,0000 0000 0000 0000 000000
2016-01-27 03:46:48,0.06,4.05,0.00,15.48,19.42,23.37,15.14,49.79,1030.75,2062.99,2239.29,2247.78,2512.71,599.78,619.76,20.24,0000 0000 0000 0000 000000
2016-01-27 03:51:49,0.07,4.05,0.00,15.49,19.44,23.36,15.23,49.92,1030.77,2062.99,2238.45,2247.01,2511.88,600.19,620.26,20.29,0000 0000 0000 0000 000000
2016-01-27 03:56:50,0.09,4.06,0.00,15.49,19.44,23.37,15.15,49.75,1030.78,2062.98,2237.51,2246.17,2510.95,600.16,620.23,20.34,0000 0000 0000 0000 000000
2016-01-27 04:01:51,0.09,4.06,0.00,15.49,19.44,23.45,15.21,49.85,1030.78,2062.97,2236.55,2245.49,2510.06,600.24,620.29,20.39,0000 0000 0000 0000 000000
2016-01-27 04:06:52,0.07,4.06,0.00,15.49,19.46,23.44,15.12,49.70,1030.76,2062.96,2235.55,2244.79,2509.16,599.69,619.78,20.44,0000 0000 0000 0000 000000
2016-01-27 04:11:54,0.08,4.07,0.00,15.50,19.47,23.41,15.25,49.74,1030.77,2062.94,2234.59,2243.99,2508.26,600.11,620.06,20.49,0000 0000 0000 0000 000000
2016-01-27 04:16:55,0.06,4.07,0.00,15.50,19.47,23.42,15.18,49.73,1030.77,2062.79,2233.58,2243.15,2507.42,599.97,619.97,20.54,0000 0000 0000 0000 000000
2016-01-27 04:21:56,0.09,4.08,0.00,15.51,19.47,23.38,15.09,49.64,1030.75,2062.75,2232.46,2242.38,2506.55,599.77,619.75,20.59,0000 0000 0000 0000 000000
2016-01-27 04:26:57,0.04,4.08,0.00,15.53,19.48,23.42,15.04,49.57,1030.71,2062.45,2231.55,2241.68,2505.62,599.82,619.71,20.64,0000 0000 0000 0000 000000
2016-01-27 04:31:59,0.05,4.08,0.00,15.54,19.49,23.47,15.17,49.64,1030.69,2062.31,2230.62,2240.96,2504.81,599.92,619.75,20.69,0000 0000 0000 0000 000000
2016-01-27 04:37:01,0.07,4.09,0.00,15.55,19.49,23.46,15.10,49.53,1030.71,2062.14,2229.60,2240.12,2503.97,599.89,619.87,20.74,0000 0000 0000 0000 000000
2016-01-27 04:42:02,0.08,4.09,0.00,15.52,19.49,23.43,15.21,49.73,1030.75,2062.09,2228.58,2239.49,2503.07,600.04,620.11,20.79,0000 0000 0000 0000 000000
2016-01-27 04:47:03,0.06,4.09,0.00,15.52,19.49,23.43,15.14,49.64,1030.77,2062.08,2227.71,2238.95,2502.14,599.52,619.55,20.84,0000 0000 0000 0000 000000
2016-01-27 04:52:05,0.08,4.10,0.00,15.50,19.49,23.47,15.18,49.63,1030.77,2062.08,2226.76,2238.11,2501.42,600.28,620.32,20.90,0000 0000 0000 0000 000000
2016-01-27 04:57:07,0.09,4.10,0.00,15.52,19.49,23.42,15.21,49.84,1030.76,2062.07,2225.73,2237.45,2500.64,600.08,619.95,20.95,0000 0000 0000 0000 000000
2016-01-27 05:02:08,0.05,4.10,0.00,15.56,19.49,23.45,15.25,49.67,1030.75,2062.04,2224.80,2236.82,2499.82,600.07,620.00,21.00,0000 0000 0000 0000 000000
2016-01-27 05:07:09,0.09,4.11,0.00,15.56,19.49,23.46,15.18,49.58,1030.69,2062.02,2223.69,2235.98,2498.91,600.23,620.09,21.05,0000 0000 0000 0000 000000
2016-01-27 05:12:10,0.08,4.11,0.00,15.54,19.49,23.43,15.15,49.59,1030.74,2062.01,2222.70,2235.11,2498.02,599.65,619.49,21.10,0000 0000 0000 0000 000000
2016-01-27 05:17:12,0.09,4.12,0.00,15.53,19.49,23.44,15.12,49.67,1030.68,2062.02,2221.64,2234.40,2497.14,599.87,619.79,21.15,0000 0000 0000 0000 000000
2016-01-27 05:22:13,0.09,4.12,0.00,15.56,19.49,23.45,15.30,49.68,1030.60,2062.02,2220.53,2233.69,2496.29,600.35,620.14,21.20,0000 0000 0000 0000 000000
2016-01-27 05:27:14,0.07,4.13,0.00,15.57,19.49,23.48,15.12,49.58,1030.54,2062.02,2219.47,2232.95,2495.56,599.80,619.48,21.25,0000 0000 0000 0000 000000
2016-01-27 05:32:15,0.09,4.13,0.00,15.57,19.49,23.46,15.14,49.67,1030.41,2062.02,2218.38,2232.09,2494.76,599.88,619.56,21.30,0000 0000 0000 0000 000000
2016-01-27 05:37:17,0.09,4.14,0.00,15.56,19.49,23.45,15.16,49.60,1030.36,2062.01,2217.14,2231.21,2493.89,600.21,619.84,21.35,0000 0000 0000 0000 000000
2016-01-27 05:42:18,0.10,4.14,0.00,15.53,19.49,23.47,15.14,49.64,1030.32,2062.00,2215.97,2230.39,2492.91,599.94,619.66,21.40,0000 0000 0000 0000 000000
2016-01-27 05:47:19,0.11,4.15,0.00,15.52,19.50,23.49,15.15,49.73,1030.31,2062.00,2214.68,2229.51,2491.96,599.85,619.58,21.45,0000 0000 0000 0000 000000
2016-01-27 05:52:21,0.08,4.15,0.00,15.50,19.51,23.42,15.22,49.71,1030.33,2062.02,2213.51,2228.72,2491.05,599.97,619.69,21.50,0000 0000 0000 0000 000000
2016-01-27 05:57:22,0.08,4.16,0.00,15.52,19.52,23.42,15.22,49.65,1030.30,2062.04,2212.41,2227.94,2490.14,600.13,619.89,21.55,0000 0000 0000 0000 000000
2016-01-27 06:02:24,0.08,4.16,0.00,15.49,19.52,23.46,15.20,49.74,1030.30,2062.03,2211.62,2227.11,2489.22,600.14,619.89,21.60,0000 0000 0000 0000 000000
2016-01-27 06:07:25,0.10,4.17,0.00,15.50,19.52,23.44,15.19,49.69,1030.29,2062.01,2210.27,2226.25,2488.25,600.03,619.74,21.65,0000 0000 0000 0000 000000
2016-01-27 06:12:26,0.08,4.17,0.00,15.52,19.52,23.49,15.15,49.73,1030.29,2062.03,2209.30,2225.60,2487.54,600.04,619.76,21.70,0000 0000 0000 0000 000000
2016-01-27 06:17:27,0.07,4.17,0.00,15.53,19.54,23.45,15.22,49.63,1030.29,2062.02,2208.32,2224.87,2486.56,600.13,619.77,21.75,0000 0000 0000 0000 000000
2016-01-27 06:22:29,0.09,4.18,0.00,15.50,19.54,23.49,15.19,49.69,1030.29,2062.02,2207.25,2224.03,2485.65,599.98,619.80,21.80,0000 0000 0000 0000 000000
2016-01-27 06:27:30,0.11,4.18,0.00,15.48,19.54,23.49,15.15,49.70,1030.29,2062.01,2205.94,2223.14,2484.62,599.83,619.63,21.85,0000 0000 0000 0000 000000
2016-01-27 06:32:31,0.11,4.19,0.00,15.50,19.55,23.48,15.23,49.87,1030.29,2062.00,2204.64,2222.17,2483.61,600.30,620.05,21.90,0000 0000 0000 0000 000000
2016-01-27 06:37:33,0.09,4.19,0.00,15.51,19.56,23.53,15.13,49.70,1030.28,2062.00,2203.59,2221.32,2482.68,599.89,619.63,21.95,0000 0000 0000 0000 000000
2016-01-27 06:42:34,0.10,4.20,0.00,15.48,19.57,23.49,15.21,49.75,1030.16,2062.00,2202.37,2220.46,2481.64,599.90,619.60,22.00,0000 0000 0000 0000 000000
2016-01-27 06:47:35,0.08,4.20,0.00,15.45,19.57,23.51,15.20,49.80,1030.15,2062.00,2201.20,2219.63,2480.68,600.15,619.88,22.05,0000 0000 0000 0000 000000
2016-01-27 06:52:37,0.08,4.21,0.00,15.48,19.58,23.50,15.26,49.80,1030.12,2062.00,2200.16,2218.80,2479.77,600.43,620.16,22.10,0000 0000 0000 0000 000000
2016-01-27 06:57:38,0.09,4.21,0.00,15.50,19.59,23.51,15.22,49.74,1030.11,2062.00,2198.95,2217.92,2478.81,599.89,619.44,22.15,0000 0000 0000 0000 000000
2016-01-27 07:02:40,0.10,4.22,0.00,15.50,19.59,23.56,15.13,49.74,1030.12,2062.00,2197.78,2217.05,2477.82,599.69,619.34,22.20,0000 0000 0000 0000 000000
2016-01-27 07:07:41,0.11,4.22,0.00,15.50,19.60,23.52,15.22,49.88,1030.24,2061.99,2196.58,2216.16,2476.85,600.04,619.77,22.25,0000 0000 0000 0000 000000
2016-01-27 07:12:43,0.10,4.23,0.00,15.50,19.62,23.51,15.24,50.02,1030.26,2061.99,2195.14,2215.23,2475.87,599.99,619.77,22.30,0000 0000 0000 0000 000000
2016-01-27 07:17:44,0.10,4.23,0.00,15.46,19.62,23.50,15.21,50.09,1030.23,2061.99,2193.93,2214.39,2474.89,599.87,619.60,22.35,0000 0000 0000 0000 000000
2016-01-27 07:22:46,0.08,4.24,0.00,15.45,19.62,23.58,15.15,50.01,1030.13,2061.99,2192.92,2213.58,2473.96,599.59,619.33,22.40,0000 0000 0000 0000 000000
2016-01-27 07:27:47,0.06,4.24,0.00,15.47,19.64,23.55,15.21,49.95,1030.11,2061.98,2192.05,2212.93,2473.08,600.11,619.82,22.45,0000 0000 0000 0000 000000
2016-01-27 07:32:48,0.09,4.25,0.00,15.47,19.64,23.59,15.11,49.96,1030.06,2061.98,2191.16,2212.08,2472.28,599.85,619.55,22.50,0000 0000 0000 0000 000000
2016-01-27 07:37:49,0.10,4.25,0.00,15.51,19.67,23.66,15.26,50.07,1029.99,2061.97,2190.06,2211.22,2471.33,600.28,619.97,22.55,0000 0000 0000 0000 000000
2016-01-27 07:42:51,0.09,4.26,0.00,15.52,19.67,23.61,15.20,50.02,1030.00,2061.98,2189.00,2210.56,2470.49,600.04,619.54,22.60,0000 0000 0000 0000 000000
2016-01-27 07:47:52,0.08,4.26,0.00,15.54,19.69,23.61,15.27,50.15,1029.95,2061.98,2187.93,2209.79,2469.55,600.43,619.82,22.65,0000 0000 0000 0000 000000
2016-01-27 07:52:54,0.08,4.27,0.00,15.55,19.69,23.62,15.17,50.08,1029.85,2061.99,2186.92,2209.00,2468.71,599.83,619.13,22.70,0000 0000 0000 0000 000000
2016-01-27 07:57:55,0.08,4.27,0.00,15.51,19.71,23.65,15.24,49.98,1029.96,2061.97,2185.94,2208.15,2467.83,600.21,619.65,22.75,0000 0000 0000 0000 000000
2016-01-27 08:02:56,0.08,4.27,0.00,15.50,19.72,23.65,15.21,50.05,1030.07,2061.95,2185.00,2207.48,2466.94,600.16,619.78,22.80,0000 0000 0000 0000 000000
2016-01-27 08:07:58,0.07,4.28,0.00,15.51,19.74,23.65,15.21,50.04,1030.09,2061.88,2184.04,2206.73,2466.05,600.07,619.68,22.85,0000 0000 0000 0000 000000
2016-01-27 08:12:59,0.03,4.28,0.00,15.52,19.74,23.71,15.27,50.10,1030.00,2061.65,2183.12,2206.01,2465.18,600.38,619.92,22.90,0000 0000 0000 0000 000000
2016-01-27 08:18:00,0.07,4.28,0.00,15.53,19.75,23.63,15.17,50.00,1029.88,2061.36,2182.34,2205.24,2464.48,600.01,619.47,22.95,0000 0000 0000 0000 000000
2016-01-27 08:23:01,0.04,4.29,0.00,15.53,19.76,23.67,15.13,49.89,1029.81,2061.23,2181.66,2204.78,2463.82,599.76,619.14,23.00,0000 0000 0000 0000 000000
2016-01-27 08:28:03,0.07,4.29,0.00,15.53,19.77,23.66,15.13,49.93,1029.80,2061.18,2180.68,2204.03,2463.00,599.61,619.12,23.05,0000 0000 0000 0000 000000
2016-01-27 08:33:04,0.09,4.29,0.00,15.54,19.77,23.64,15.15,49.92,1029.80,2061.12,2179.78,2203.28,2462.11,599.99,619.40,23.10,0000 0000 0000 0000 000000
2016-01-27 08:38:06,0.05,4.30,0.00,15.53,19.77,23.65,15.10,49.88,1029.79,2061.08,2178.94,2202.80,2461.47,599.45,618.73,23.15,0000 0000 0000 0000 000000
2016-01-27 08:43:07,0.06,4.30,0.00,15.53,19.77,23.63,15.30,49.85,1029.72,2061.04,2178.08,2202.03,2460.78,600.26,619.61,23.20,0000 0000 0000 0000 000000
2016-01-27 08:48:08,0.08,4.30,0.00,15.53,19.77,23.63,15.15,49.79,1029.57,2061.03,2177.17,2201.55,2460.03,599.94,619.19,23.25,0000 0000 0000 0000 000000
2016-01-27 08:53:09,0.06,4.31,0.00,15.55,19.77,23.62,15.16,49.81,1029.37,2061.03,2176.44,2200.98,2459.36,599.99,619.11,23.30,0000 0000 0000 0000 000000
2016-01-27 08:58:11,0.07,4.31,0.00,15.54,19.77,23.63,15.16,49.79,1029.32,2061.01,2175.66,2200.20,2458.78,600.08,619.19,23.35,0000 0000 0000 0000 000000
2016-01-27 09:03:12,0.07,4.31,0.00,15.53,19.77,23.62,15.11,49.90,1029.32,2061.03,2174.78,2199.75,2458.01,599.76,618.85,23.40,0000 0000 0000 0000 000000
2016-01-27 09:08:13,0.06,4.32,0.00,15.56,19.77,23.64,15.14,49.82,1029.35,2061.03,2174.03,2199.03,2457.20,599.85,618.94,23.45,0000 0000 0000 0000 000000
2016-01-27 09:13:14,0.08,4.32,0.00,15.57,19.77,23.64,15.20,49.73,1029.35,2061.03,2173.35,2198.54,2456.68,600.13,619.14,23.50,0000 0000 0000 0000 000000
2016-01-27 09:18:16,0.04,4.33,0.00,15.59,19.77,23.63,15.20,49.72,1029.33,2061.03,2172.59,2198.00,2456.01,600.09,619.07,23.55,0000 0000 0000 0000 000000
2016-01-27 09:23:17,0.07,4.33,0.00,15.55,19.77,23.69,15.19,49.70,1029.32,2061.02,2171.92,2197.32,2455.22,600.17,619.28,23.60,0000 0000 0000 0000 000000
2016-01-27 09:28:18,0.07,4.33,0.00,15.57,19.77,23.66,15.12,49.74,1029.32,2061.01,2170.91,2196.84,2454.59,599.84,618.82,23.65,0000 0000 0000 0000 000000
2016-01-27 09:33:20,0.07,4.34,0.00,15.57,19.77,23.63,15.15,49.88,1029.31,2061.02,2170.04,2196.07,2453.95,600.12,619.09,23.70,0000 0000 0000 0000 000000
2016-01-27 09:38:21,0.08,4.34,0.00,15.57,19.77,23.66,15.18,49.92,1029.31,2061.02,2169.30,2195.58,2453.10,600.16,619.11,23.75,0000 0000 0000 0000 000000
2016-01-27 09:43:22,0.05,4.34,0.00,15.57,19.77,23.61,15.18,49.88,1029.31,2061.01,2168.69,2195.01,2452.64,599.80,618.81,23.80,0000 0000 0000 0000 000000
2016-01-27 09:48:23,0.06,4.35,0.00,15.58,19.79,23.64,15.17,49.83,1029.31,2061.03,2167.95,2194.45,2452.00,599.91,618.95,23.85,0000 0000 0000 0000 000000
2016-01-27 09:53:24,0.05,4.35,0.00,15.60,19.79,23.66,15.14,49.80,1029.31,2061.01,2167.13,2193.98,2451.33,599.87,618.73,23.90,0000 0000 0000 0000 000000
2016-01-27 09:58:25,0.07,4.35,0.00,15.61,19.79,23.65,15.19,49.80,1029.30,2061.01,2166.31,2193.23,2450.84,599.74,618.63,23.95,0000 0000 0000 0000 000000
2016-01-27 10:03:27,0.06,4.36,0.00,15.57,19.79,23.68,15.16,49.88,1029.27,2061.02,2165.60,2192.76,2450.04,599.85,618.84,24.00,0000 0000 0000 0000 000000
2016-01-27 10:08:28,0.07,4.36,0.00,15.56,19.79,23.68,15.17,49.93,1029.26,2061.01,2164.72,2192.02,2449.21,599.74,618.72,24.05,0000 0000 0000 0000 000000
2016-01-27 10:13:29,0.06,4.36,0.00,15.59,19.79,23.68,15.13,49.84,1029.10,2061.00,2164.02,2191.44,2448.67,600.03,618.90,24.10,0000 0000 0000 0000 000000
2016-01-27 10:18:30,0.04,4.37,0.00,15.62,19.79,23.66,15.22,49.93,1028.96,2061.01,2163.31,2190.98,2448.00,600.02,618.38,24.15,0000 0000 0000 0000 000000
2016-01-27 10:23:32,0.09,4.37,0.00,15.63,19.79,23.68,15.10,49.89,1029.00,2061.00,2162.36,2190.25,2447.19,600.00,618.70,24.20,0000 0000 0000 0000 000000
2016-01-27 10:28:33,0.07,4.37,0.00,15.62,19.79,23.66,15.22,50.00,1028.97,2061.00,2161.53,2189.71,2446.52,600.35,619.11,24.25,0000 0000 0000 0000 000000
2016-01-27 10:33:35,0.06,4.38,0.00,15.61,19.79,23.72,15.14,49.85,1028.94,2061.01,2160.69,2189.01,2445.79,600.10,618.80,24.30,0000 0000 0000 0000 000000
2016-01-27 10:38:36,0.09,4.38,0.00,15.58,19.80,23.71,15.21,49.87,1028.84,2061.01,2159.71,2188.23,2444.99,599.96,618.70,24.35,0000 0000 0000 0000 000000
2016-01-27 10:43:37,0.07,4.39,0.00,15.56,19.80,23.68,15.14,49.66,1028.83,2061.01,2158.85,2187.62,2444.10,600.17,618.91,24.40,0000 0000 0000 0000 000000
2016-01-27 10:48:39,0.06,4.39,0.00,15.62,19.81,23.71,15.25,49.78,1028.83,2061.01,2158.02,2186.96,2443.43,600.17,618.72,24.46,0000 0000 0000 0000 000000
2016-01-27 10:53:40,0.09,4.40,0.00,15.60,19.82,23.71,15.17,49.69,1028.83,2061.00,2157.13,2186.12,2442.58,600.08,618.79,24.51,0000 0000 0000 0000 000000
2016-01-27 10:58:42,0.09,4.40,0.00,15.58,19.82,23.72,15.19,49.84,1028.83,2061.00,2156.25,2185.49,2441.71,600.06,618.76,24.56,0000 0000 0000 0000 000000
2016-01-27 11:03:43,0.09,4.40,0.00,15.61,19.82,23.73,15.27,50.03,1028.82,2061.00,2155.02,2184.61,2440.83,600.58,619.23,24.60,0000 0000 0000 0000 000000
2016-01-27 11:08:44,0.08,4.41,0.00,15.60,19.82,23.73,15.21,49.97,1028.82,2061.01,2153.96,2183.83,2439.93,600.08,618.79,24.66,0000 0000 0000 0000 000000
2016-01-27 11:13:46,0.08,4.41,0.00,15.58,19.82,23.75,15.17,49.82,1028.82,2061.00,2152.98,2183.02,2439.04,600.11,618.71,24.71,0000 0000 0000 0000 000000
2016-01-27 11:18:47,0.10,4.42,0.00,15.58,19.82,23.72,15.14,49.67,1028.81,2061.00,2152.07,2182.17,2438.14,600.05,618.82,24.76,0000 0000 0000 0000 000000
2016-01-27 11:23:48,0.10,4.42,0.00,15.61,19.82,23.68,15.16,49.66,1028.78,2061.00,2151.13,2181.45,2437.21,600.21,618.74,24.81,0000 0000 0000 0000 000000
2016-01-27 11:28:50,0.09,4.43,0.00,15.60,19.82,23.69,15.13,49.84,1028.63,2061.00,2150.07,2180.64,2436.34,599.84,618.32,24.86,0000 0000 0000 0000 000000
2016-01-27 11:33:51,0.06,4.43,0.00,15.62,19.82,23.67,15.10,49.60,1028.54,2061.00,2149.30,2179.94,2435.50,600.02,618.46,24.91,0000 0000 0000 0000 000000
2016-01-27 11:38:53,0.10,4.44,0.00,15.63,19.82,23.69,15.14,49.80,1028.38,2061.00,2148.23,2179.09,2434.55,600.24,618.57,24.96,0000 0000 0000 0000 000000
2016-01-27 11:43:54,0.10,4.44,0.00,15.62,19.82,23.70,15.08,49.83,1028.34,2061.00,2147.03,2178.28,2433.63,599.74,618.14,25.01,0000 0000 0000 0000 000000
2016-01-27 11:48:55,0.08,4.45,0.00,15.64,19.82,23.69,15.13,49.83,1028.34,2061.00,2145.98,2177.52,2432.79,600.13,618.47,25.06,0000 0000 0000 0000 000000
2016-01-27 11:53:56,0.06,4.45,0.00,15.66,19.82,23.69,15.13,49.77,1028.34,2061.00,2145.18,2176.87,2431.96,599.84,618.07,25.11,0000 0000 0000 0000 000000
2016-01-27 11:58:57,0.10,4.46,0.00,15.64,19.83,23.71,15.17,49.79,1028.34,2061.00,2144.22,2176.01,2431.07,600.03,618.30,25.16,0000 0000 0000 0000 000000
2016-01-27 12:03:59,0.10,4.46,0.00,15.65,19.84,23.65,15.17,49.71,1028.34,2061.00,2143.16,2175.11,2430.15,599.86,618.07,25.21,0000 0000 0000 0000 000000
2016-01-27 12:09:00,0.09,4.46,0.00,15.66,19.84,23.70,15.19,49.79,1028.33,2061.00,2142.26,2174.51,2429.30,599.95,618.14,25.26,0000 0000 0000 0000 000000
2016-01-27 12:14:01,0.09,4.47,0.00,15.62,19.84,23.68,15.19,49.77,1028.28,2060.99,2141.10,2173.71,2428.33,599.79,618.14,25.31,0000 0000 0000 0000 000000
2016-01-27 12:19:02,0.07,4.47,0.00,15.62,19.84,23.73,15.07,49.83,1028.10,2060.99,2140.20,2172.99,2427.51,599.90,618.06,25.36,0000 0000 0000 0000 000000
2016-01-27 12:24:03,0.08,4.48,0.00,15.62,19.84,23.75,15.16,49.89,1027.93,2060.99,2139.53,2172.22,2426.82,600.12,618.19,25.41,0000 0000 0000 0000 000000
2016-01-27 12:29:04,0.09,4.48,0.00,15.65,19.84,23.66,15.10,49.83,1027.88,2060.99,2138.58,2171.60,2425.90,599.89,617.74,25.46,0000 0000 0000 0000 000000
2016-01-27 12:34:05,0.10,4.49,0.00,15.62,19.84,23.73,15.18,49.92,1027.85,2060.99,2137.20,2170.65,2424.91,600.09,618.18,25.51,0000 0000 0000 0000 000000
2016-01-27 12:39:07,0.08,4.49,0.00,15.64,19.84,23.72,15.17,50.02,1027.85,2060.98,2136.39,2169.78,2423.98,600.01,617.98,25.56,0000 0000 0000 0000 000000
2016-01-27 12:44:08,0.08,4.50,0.00,15.62,19.84,23.71,15.12,49.86,1027.85,2060.99,2135.16,2169.01,2423.06,599.58,617.60,25.61,0000 0000 0000 0000 000000
2016-01-27 12:49:10,0.10,4.50,0.00,15.62,19.84,23.70,15.11,49.80,1027.85,2060.97,2134.34,2168.21,2422.17,599.55,617.53,25.66,0000 0000 0000 0000 000000
2016-01-27 12:54:11,0.09,4.50,0.00,15.61,19.84,23.72,15.13,49.85,1027.79,2060.98,2133.46,2167.54,2421.33,600.03,618.10,25.71,0000 0000 0000 0000 000000